Location: Aranbee
(34.0885°N, 118.2342°W)
Time: 13:14:17
(UTC+00:00)

Tiros 1 - Pass Details

Date: 29 November 2020
Orbit: 630 x 663 km, 48.4° (Epoch: 21 January)

Event Time Altitude Azimuth Distance (km) Brightness Sun altitude
Rises 05:42:18 0° 306° (NW) 2,969 - -61.0°
Reaches altitude 10° 05:44:40 10° 304° (NW) 2,050 - -61.5°
Maximum altitude 05:49:22 72° 221° (SW) 678 - -62.4°
Drops below altitude 10° 05:54:00 10° 137° (SE) 2,019 - -63.3°
Sets 05:56:19 0° 135° (SE) 2,920 - -63.7°
